Hourly Data Report for October 29, 2015

All times are specified in Local Standard Time (LST). Add 1 hour to adjust for Daylight Saving Time where and when it is observed.

FREDERICTON
NEW BRUNSWICK

45°52'08.000" N
66°32'14.000" W
20.70 m
8101505
71700
YFC

Download Data

Hourly Data (October 2015)
Hourly Data Report for October 29, 2015
Temp Definition
°C
Dew Point Temp Definition
°C
Rel Hum Definition
%
Wind Dir Definition
10's deg

Wind Spd Definition
km/h
Visibility Definition
km
Stn Press Definition
kPa
Hmdx Definition


Wind Chill Definition


Weather Definition


TIME
00:00 Legend Double Dagger 5.6 4.4 92 9 18 14.5 102.02     Rain
01:00 Legend Double Dagger 5.6 4.3 91 9 17 16.1 101.86     Rain
02:00 Legend Double Dagger 5.7 4.2 90 10 24 16.1 101.58     Rain
03:00 Legend Double Dagger 5.9 4.9 93 11 17 16.1 101.30     Rain
04:00 Legend Double Dagger 6.7 6.1 96 9 13 3.6 101.06     Rain,Fog
05:00 Legend Double Dagger 8.9 7.7 92 12 21 9.7 100.79     Rain,Fog
06:00 Legend Double Dagger 10.0 8.8 92 12 17 16.1 100.55     Rain
07:00 Legend Double Dagger 11.7 10.6 93 13 18 6.4 100.23     Moderate Rain,Fog
08:00 Legend Double Dagger 13.4 12.4 94 14 22 4.8 100.05     Rain,Fog
09:00 Legend Double Dagger 15.5 14.6 94 18 26 4.8 99.88     Heavy Rain,Fog
10:00 Legend Double Dagger 16.0 14.7 92 18 39 8.1 99.71     Moderate Rain,Fog
11:00 Legend Double Dagger 15.9 14.8 93 18 26 16.1 99.59     Moderate Rain
12:00 Legend Double Dagger 16.7 15.2 91 19 28 16.1 99.46     Rain
13:00 Legend Double Dagger 17.2 15.6 90 19 24 16.1 99.37     LegendNANA
14:00 Legend Double Dagger 17.7 15.9 89 20 22 16.1 99.25     LegendNANA
15:00 Legend Double Dagger 17.7 16.0 90 18 17 16.1 99.17     LegendNANA
16:00 Legend Double Dagger 16.6 15.5 93 18 21 16.1 99.08     LegendNANA
17:00 Legend Double Dagger 16.5 15.5 94 18 21 16.1 99.03     LegendNANA
18:00 Legend Double Dagger 16.0 14.7 92 18 26 16.1 98.95     LegendNANA
19:00 Legend Double Dagger 15.6 14.2 91 19 28 16.1 98.97     LegendNANA
20:00 Legend Double Dagger 15.7 14.1 90 20 30 16.1 98.93     LegendNANA
21:00 Legend Double Dagger 15.9 13.8 87 24 22 16.1 98.99     LegendNANA
22:00 Legend Double Dagger 10.2 6.6 78 27 15 16.1 99.26     Rain
23:00 Legend Double Dagger 9.0 5.2 77 25 17 16.1 99.29     Rain

Notes on Data Quality.

Legend

  • E = Estimated
  • M = Missing
  • NA = Not Available
  • ‡ = Partner data that is not subject to review by the National Climate Archives
Date modified: